This demonstration page uses our WeatherBlox Daily Observations layout. Learn more.

Left ArrowRight Arrow

Hourly Observations for March 22, 2022

Temp ( °F °C ) Dew Point ( °F °C ) Humidity (%) Winds ( mph kmh ) Pressure ( in mb ) Visibility ( mi km ) Precip ( " mm )
12:59 am 00:59 Clear 56 13.3 33 0.6 42 42 SSW 9 15 30.17 1022 10 16 0.00 0.00
1:59 am 01:59 Clear 55 12.8 36 2.2 49 49 SSW 10 17 30.18 1022 10 16 0.00 0.00
2:59 am 02:59 Clear 54 12.2 37 2.8 53 53 SW 7 11 30.18 1022 10 16 0.00 0.00
3:59 am 03:59 Clear 54 12.2 38 3.3 55 55 SW 9 15 30.17 1022 10 16 0.00 0.00
4:59 am 04:59 Clear 53 11.7 38 3.3 57 57 SW 8 13 30.18 1022 10 16 0.00 0.00
5:59 am 05:59 Clear 53 11.7 38 3.3 57 57 SW 8 13 30.18 1022 10 16 0.00 0.00
6:59 am 06:59 Clear 52 11.1 39 3.9 61 61 SSW 6 9 30.17 1022 10 16 0.00 0.00
7:59 am 07:59 Sunny 53 11.7 39 3.9 59 59 SW 6 9 30.19 1022 10 16 0.00 0.00
8:59 am 08:59 Partly Cloudy 57 13.9 39 3.9 51 51 WSW 9 15 30.20 1023 10 16 0.00 0.00
9:59 am 09:59 Partly Cloudy 60 15.6 41 5 50 50 VRB 7 11 30.20 1023 10 16 0.00 0.00
10:59 am 10:59 Mostly Cloudy 64 17.8 43 6.1 46 46 WSW 8 13 30.20 1023 10 16 0.00 0.00
11:59 am 11:59 Sunny 68 20 42 5.6 39 39 WSW 10 17 30.20 1023 10 16 0.00 0.00
12:59 pm 12:59 Mostly Cloudy 72 22.2 40 4.4 31 31 W 9 15 30.18 1022 10 16 0.00 0.00
1:59 pm 13:59 Mostly Cloudy 74 23.3 40 4.4 29 29 WSW 8 13 30.16 1021 10 16 0.00 0.00
2:59 pm 14:59 Mostly Cloudy 74 23.3 37 2.8 26 26 VRB 7 11 30.14 1021 10 16 0.00 0.00
3:59 pm 15:59 Mostly Cloudy 68 20 41 5 38 38 E 14 22 30.14 1021 10 16 0.00 0.00
4:59 pm 16:59 Mostly Cloudy 63 17.2 41 5 45 45 E 12 19 30.13 1020 10 16 0.00 0.00
5:59 pm 17:59 Cloudy 61 16.1 42 5.6 50 50 E 14 22 30.13 1020 10 16 0.00 0.00
6:59 pm 18:59 Cloudy 58 14.4 45 7.2 62 62 E 8 13 30.14 1021 10 16 0.00 0.00
7:59 pm 19:59 Mostly Cloudy 58 14.4 41 5 53 53 SE 8 13 30.13 1020 10 16 0.00 0.00
8:59 pm 20:59 Mostly Cloudy 57 13.9 42 5.6 58 58 SE 6 9 30.14 1021 10 16 0.00 0.00
9:59 pm 21:59 Mostly Cloudy 52 11.1 42 5.6 69 69 Calm 30.16 1021 10 16 0.00 0.00
10:59 pm 22:59 Partly Cloudy 50 10 43 6.1 77 77 SSE 3 6 30.14 1021 10 16 0.00 0.00
11:59 pm 23:59 Mostly Cloudy 55 12.8 45 7.2 69 69 SSE 7 11 30.14 1021 10 16 0.00 0.00

Powered by AerisWeather